Location: Young's Pond
(41.2695°N, 72.7766°W)
Time: 21:27:05
(UTC-04:00)

Spot 4 - Visible Passes

Search period start: 23 April 2017 00:00
Search period end: 03 May 2017 00:00
Orbit: 704 x 724 km, 98.3° (Epoch: 22 April)

Date Brightness Start Highest point End Pass type
(mag) Time Alt. Az. Time Alt. Az. Time Alt. Az.
23 Apr 5.3 22:26:16 25° NE 22:26:16 25° NE 22:29:19 10° N visible
24 Apr 5.9 00:05:23 22° NW 00:05:23 22° NW 00:07:28 10° NNW visible
24 Apr 4.9 23:13:09 41° N 23:13:09 41° N 23:16:18 10° N visible
25 Apr 5.4 22:20:54 23° NE 22:20:54 23° NE 22:24:04 10° NNE visible
26 Apr 5.7 00:00:02 25° NW 00:00:02 25° NW 00:02:25 10° NNW visible
26 Apr 4.7 23:07:47 44° N 23:07:47 44° N 23:11:09 10° N visible
27 Apr 5.5 22:15:33 22° ENE 22:15:33 22° ENE 22:18:46 10° NNE visible
27 Apr 5.5 23:54:40 29° NW 23:54:40 29° NW 23:57:22 10° NNW visible
28 Apr 4.6 23:02:26 46° NNE 23:02:26 46° NNE 23:05:59 10° N visible
29 Apr 6.5 00:41:34 12° WNW 00:41:34 12° WNW 00:42:10 10° WNW visible
29 Apr 5.5 22:10:12 20° ENE 22:10:12 20° ENE 22:13:28 10° NNE visible
29 Apr 5.3 23:49:19 33° NW 23:49:19 33° NW 23:52:18 10° NNW visible
30 Apr 4.6 22:57:05 45° NNE 22:57:05 45° NNE 23:00:49 10° N visible
01 May 6.3 00:36:13 14° WNW 00:36:13 14° WNW 00:37:23 10° NW visible
01 May 5.6 22:04:51 18° ENE 22:05:00 18° ENE 22:08:08 10° NNE visible
01 May 5.0 23:43:58 38° NW 23:43:58 38° NW 23:47:14 10° NNW visible
02 May 4.6 22:51:44 43° NE 22:51:44 43° NE 22:55:37 10° N visible
